Theta_e
301 292 289 289 292 293 294 295 295 295 296 294 293 291 290 291 293 294 294 296 297 294 291 292 293 293 294 294 296 298 297 296 296 296 297 298 298 299 298 299 300 301 301 304 306 310 314 316 319 321 323 324 326 327 328 328 329 330 330 330 329 331 331 330 329 329 328 327 326 326 326 326 326 328 331 332 332 331 331 330 330 330 330 329 328 326
298 292 291 293 295 295 295 296 296 295 295 293 294 291 290 292 289 294 293 294 296 293 290 292 292 292 294 295 296 297 297 296 297 297 297 298 299 299 300 300 300 301 306 308 307 308 310 314 316 319 320 320 322 323 326 327 328 329 330 330 330 330 331 331 330 329 328 327 327 326 325 325 324 327 327 328 330 331 331 330 330 330 330 328 327 325
291 290 294 295 297 297 296 296 296 296 295 296 292 292 291 292 292 294 293 295 295 293 289 291 290 292 294 295 296 297 298 298 299 299 299 299 299 300 301 301 301 301 302 306 307 308 308 311 315 317 318 320 321 322 323 325 326 327 328 329 330 330 330 330 330 329 328 328 327 327 325 325 322 325 328 329 329 330 330 330 330 329 329 329 328 327
288 291 296 296 297 296 295 294 294 296 297 292 292 289 287 293 288 288 292 294 294 291 292 290 289 292 295 296 296 298 298 299 299 300 300 300 299 300 300 301 302 302 303 306 307 307 307 308 310 311 313 317 318 318 319 321 323 326 326 327 328 329 329 329 329 327 329 329 327 327 327 327 326 325 325 327 328 331 331 329 330 331 331 330 329 329
290 294 294 296 297 296 293 294 293 291 289 294 296 293 291 292 292 292 290 292 293 294 294 290 289 289 292 292 293 296 299 298 299 299 300 300 301 301 302 303 303 302 304 305 306 306 306 307 307 307 309 311 314 316 318 319 321 324 324 326 327 328 329 329 327 326 327 327 327 327 326 327 326 324 326 323 322 326 329 329 329 330 330 330 329 328
294 293 297 294 295 294 295 291 293 293 288 291 296 297 295 296 292 292 292 290 289 288 292 292 283 281 289 291 293 294 294 296 298 297 298 299 301 302 302 303 304 308 306 305 306 306 305 306 306 306 306 306 308 310 314 319 320 320 322 324 325 326 327 328 327 327 327 326 326 325 324 322 321 321 323 323 323 324 324 327 329 329 329 328 327 327
292 292 295 296 294 295 295 293 295 295 289 288 291 298 296 295 294 293 292 292 283 281 291 292 282 279 289 291 292 293 294 294 296 296 297 298 299 300 301 302 302 303 303 305 305 305 304 304 305 306 306 306 306 307 308 312 317 319 320 322 324 325 325 326 327 327 325 326 326 326 325 323 321 321 321 321 325 326 325 326 328 328 328 328 327 327
291 292 294 296 295 294 292 289 296 295 291 287 295 299 297 296 294 294 294 291 288 291 292 292 291 282 282 289 294 294 292 293 293 295 297 297 297 298 300 301 300 301 301 302 303 303 303 303 304 305 306 306 306 306 308 309 313 317 319 321 322 323 323 325 326 326 326 326 325 324 323 322 321 321 320 322 323 324 324 325 324 328 328 328 327 328
293 290 294 294 295 291 291 296 297 297 293 292 294 298 295 296 296 295 293 288 289 284 282 287 291 282 280 287 293 292 291 291 292 293 296 298 298 297 299 300 300 301 302 303 303 303 303 302 302 303 303 304 305 306 306 308 310 313 316 318 320 321 321 323 324 325 325 324 325 324 323 320 321 322 321 321 322 321 319 319 319 321 324 326 326 327
295 294 296 297 294 291 294 291 294 298 291 293 297 299 298 298 297 295 289 288 287 283 279 284 289 280 281 288 290 291 289 290 292 294 294 296 297 298 299 299 301 302 302 302 303 303 304 305 304 303 303 303 303 304 305 305 307 309 311 315 318 319 320 322 323 323 324 323 322 322 321 320 319 320 320 319 320 320 319 319 318 319 321 324 322 322
295 296 295 297 294 296 292 293 295 296 296 297 297 295 293 292 290 288 288 285 284 279 280 290 291 286 279 286 288 288 291 291 292 293 295 298 298 300 300 300 300 300 301 302 303 303 304 304 304 302 301 302 304 303 303 304 304 305 308 311 315 318 319 320 322 322 323 322 321 321 320 320 319 317 317 316 317 318 319 321 322 322 323 324 325 326
294 295 296 294 296 295 296 293 296 298 297 298 293 290 289 287 287 285 283 283 278 276 283 282 288 289 277 281 292 292 293 293 292 293 294 296 299 299 299 298 298 298 299 300 300 302 303 302 302 301 300 301 304 303 302 303 304 304 306 307 310 312 315 317 320 320 321 321 319 318 319 319 318 318 318 317 316 315 316 316 318 321 321 323 324 325
288 291 294 295 296 296 295 291 292 295 296 294 291 289 283 281 281 277 281 276 276 276 281 282 284 282 283 287 290 291 293 293 292 295 296 297 298 299 299 300 299 299 299 300 302 304 303 302 301 300 300 304 303 303 302 305 305 305 305 307 309 310 312 316 317 317 317 317 317 317 318 317 318 318 317 316 315 313 314 314 314 313 314 316 317 317
289 293 294 295 295 295 297 288 285 284 289 291 288 283 281 278 276 273 276 279 280 280 281 282 284 280 284 287 293 294 296 294 294 296 295 295 296 297 300 300 300 301 300 301 302 303 303 304 305 304 305 305 304 303 305 305 305 306 307 306 308 309 311 313 314 315 314 315 315 315 315 316 317 316 316 316 316 313 313 315 314 314 315 317 317 316
282 281 287 290 286 295 295 293 291 289 289 291 295 290 283 283 278 273 277 275 276 278 280 282 280 278 279 284 291 293 293 292 294 294 296 297 297 297 298 298 299 300 301 302 303 304 304 305 306 306 306 305 305 305 306 305 305 306 306 308 308 309 310 312 312 312 313 313 314 313 313 313 314 314 314 314 316 316 315 315 316 317 317 316 316 317
286 284 290 295 293 294 293 296 298 293 291 290 292 293 287 283 286 280 282 282 278 277 278 278 278 282 286 292 293 295 293 294 293 295 294 295 296 296 298 298 299 300 301 302 304 304 304 303 304 305 306 306 306 306 305 306 306 307 308 308 309 310 309 309 309 309 311 311 313 312 312 312 313 314 315 315 316 318 318 319 318 318 318 317 316 316
285 281 290 295 295 292 293 294 296 297 284 288 289 283 287 291 286 281 280 282 280 279 276 281 281 285 290 291 293 293 293 293 292 293 293 293 295 296 297 298 301 301 301 303 305 304 303 303 304 304 304 304 305 305 305 307 307 307 309 309 310 308 307 308 307 308 308 310 311 313 316 315 316 317 316 316 315 316 317 317 318 317 316 316 316 317
284 284 289 291 289 292 294 292 297 292 295 289 282 288 292 293 292 285 279 280 279 275 277 281 278 279 283 280 290 292 291 291 290 291 292 294 295 296 297 299 301 301 300 300 300 303 304 304 303 304 304 305 305 306 306 307 307 307 308 310 309 308 308 306 308 309 312 315 315 316 316 317 317 316 317 317 317 317 316 317 316 316 314 313 313 312
291 280 285 289 290 292 295 296 293 295 295 291 289 296 289 281 281 283 282 275 275 274 276 279 279 279 281 284 288 288 288 290 291 291 291 294 295 294 297 301 299 298 299 300 301 302 303 303 303 303 303 305 305 305 306 307 307 307 308 310 309 308 308 311 313 314 315 316 316 316 316 316 316 316 316 316 317 317 316 315 314 314 312 310 307 308
291 283 282 288 290 291 293 291 284 285 294 296 294 289 292 286 284 280 281 281 281 275 276 276 278 276 286 285 289 290 290 291 291 292 291 291 293 294 298 299 298 299 299 299 301 302 303 303 303 303 303 303 303 304 304 305 305 306 306 308 309 309 309 311 312 312 313 314 314 315 315 315 315 315 316 316 315 313 312 312 312 310 308 308 305 304
285 288 279 285 291 292 283 286 286 288 285 284 286 285 287 287 288 285 285 282 279 277 275 275 274 279 287 291 289 291 291 292 293 294 295 295 297 298 300 301 300 300 299 300 301 301 302 302 301 301 301 301 300 301 302 304 305 304 305 306 307 309 308 308 309 310 311 312 312 312 313 313 313 312 312 311 309 308 307 306 305 304 303 302 301 299
284 283 282 283 284 283 286 289 290 292 291 289 288 286 288 285 282 280 279 285 282 281 276 276 274 280 291 291 292 291 291 293 295 295 296 295 295 297 298 299 300 298 298 300 301 301 301 300 300 299 299 298 300 300 301 303 303 304 304 305 305 306 306 306 306 307 307 307 308 307 307 306 306 306 305 305 304 303 303 302 301 300 299 298 298 297
291 287 284 281 284 286 290 291 290 291 289 293 290 288 290 288 286 282 278 281 282 281 280 279 276 278 290 291 291 291 291 292 294 294 295 295 295 298 299 298 298 298 298 300 301 300 299 298 298 298 299 300 299 299 299 300 302 302 302 303 303 304 303 304 304 304 305 305 305 304 304 303 302 302 300 301 300 300 299 299 297 296 295 295 296 296
293 286 284 284 285 289 290 291 290 290 292 291 289 289 289 287 288 286 283 282 281 280 279 280 275 278 290 292 290 291 291 291 292 292 294 294 295 297 298 299 299 298 299 299 299 299 299 297 296 298 299 300 299 298 300 300 300 300 300 300 300 299 300 301 301 303 303 302 301 301 300 299 298 298 298 298 298 297 295 295 294 294 294 294 295 297
286 286 286 281 280 282 283 288 288 290 290 285 286 289 291 291 289 284 283 285 282 282 281 279 274 281 288 291 292 290 291 291 292 292 293 294 297 298 298 299 299 299 299 299 299 299 299 297 297 298 298 298 297 297 297 297 297 297 297 296 297 297 297 297 299 300 299 299 298 298 297 297 297 296 296 296 295 293 293 293 293 293 294 294 294 294
287 286 286 279 276 274 274 275 279 283 284 285 286 288 290 292 288 285 282 282 279 281 282 279 279 287 289 289 290 290 290 291 291 292 293 294 297 298 299 299 299 299 298 298 298 298 298 298 296 296 296 297 297 297 297 296 295 295 295 296 294 295 295 295 297 298 298 297 296 295 295 295 294 294 294 293 293 292 293 294 293 292 292 292 292 292
285 286 288 286 283 281 283 283 287 288 285 284 286 287 288 291 290 289 286 283 282 283 282 283 286 287 286 287 287 288 288 289 290 291 292 292 292 296 297 298 298 298 298 298 298 297 295 296 296 296 295 296 295 295 295 295 294 294 294 294 294 293 295 295 296 296 296 295 294 294 293 293 292 293 292 292 292 292 292 291 290 291 291 291 291 290
285 284 287 288 287 287 288 288 289 290 286 287 286 286 288 288 288 287 285 284 289 284 281 286 288 285 287 287 287 288 289 289 289 290 291 291 292 294 297 297 298 298 297 297 297 297 296 296 296 295 295 295 294 294 294 294 293 293 293 293 292 293 294 296 295 295 294 294 293 293 292 292 291 292 292 292 292 292 291 291 291 291 290 290 290 290
284 284 287 287 287 289 289 292 291 290 289 288 288 288 287 288 287 285 286 288 287 284 283 288 289 287 289 290 289 290 291 291 291 292 294 294 294 295 296 296 297 297 297 298 298 298 297 296 295 295 294 294 293 293 293 293 293 293 293 292 292 293 294 294 294 293 293 293 292 292 292 292 291 291 291 291 291 290 290 290 289 289 288 288 289 290
286 282 285 288 286 287 288 290 291 290 288 288 288 289 289 289 288 288 288 290 289 286 289 289 289 289 291 291 291 292 292 293 292 292 293 294 295 295 296 296 297 297 297 298 298 297 296 296 295 294 293 292 292 292 291 292 292 292 292 292 292 293 292 292 292 292 292 292 291 291 291 291 290 290 290 290 289 289 288 287 288 288 287 287 287 287
289 283 290 285 283 283 287 288 289 289 288 286 287 288 289 289 289 289 289 289 289 289 290 290 288 288 293 293 293 293 293 292 293 293 295 296 296 295 296 296 296 297 297 297 296 295 295 294 293 292 292 292 291 291 292 292 292 292 292 291 291 291 290 291 291 290 290 290 290 290 289 289 288 288 288 287 287 286 286 287 287 286 285 286 286 286
289 282 286 284 281 280 283 285 286 286 285 284 284 287 288 288 286 288 287 290 287 286 287 287 286 287 293 294 295 294 292 292 293 294 294 295 295 295 295 296 296 297 297 296 295 294 293 292 292 291 290 290 290 291 291 291 291 290 290 290 290 290 289 290 289 289 289 289 289 288 288 287 287 287 286 286 286 285 285 285 285 285 285 285 286 286
286 284 283 283 281 279 281 285 282 281 281 279 282 288 291 291 291 291 291 291 290 291 286 284 286 292 293 293 292 292 292 292 292 292 292 295 295 296 296 296 297 297 297 296 295 294 292 290 290 290 290 289 290 290 290 290 290 290 290 290 289 289 289 288 288 288 287 287 287 287 287 286 286 286 285 285 284 284 285 284 285 285 285 286 285 284
284 284 282 284 278 279 276 281 282 280 275 278 289 292 293 291 291 288 288 290 292 292 290 292 292 294 292 293 291 291 290 291 293 294 296 297 296 295 295 296 297 297 295 295 294 293 291 290 289 288 288 288 288 288 289 288 289 289 289 289 288 288 288 288 287 286 286 286 286 286 285 285 285 285 284 284 284 284 284 284 284 284 284 284 285 285
285 285 282 283 281 278 278 281 279 274 277 287 290 292 293 294 293 291 291 292 293 293 293 292 293 293 293 293 293 293 293 292 292 294 294 294 296 295 296 296 295 295 295 293 292 290 289 288 288 288 288 287 288 288 288 288 288 288 288 288 287 287 287 286 286 286 285 285 285 285 284 284 284 284 283 283 283 283 283 283 283 284 284 285 284 284
285 284 283 283 282 281 277 278 272 275 282 288 289 292 292 293 293 291 289 292 293 293 293 292 293 295 295 295 294 293 294 292 291 291 289 291 293 295 294 294 294 293 293 292 291 289 289 288 288 287 287 287 287 287 287 287 287 287 286 286 286 285 285 285 284 284 284 284 284 283 283 283 283 283 283 283 283 282 282 282 283 283 283 283 283 283
289 287 283 281 283 276 277 278 278 282 281 282 286 286 291 287 287 288 284 287 293 294 293 293 294 295 295 295 294 291 291 290 291 293 288 290 289 290 293 294 294 292 291 290 289 288 288 287 287 287 287 286 286 286 286 286 286 285 285 285 284 284 283 283 282 282 282 282 282 282 282 282 282 282 282 282 282 281 281 281 282 282 283 282 282 282
290 285 284 283 279 283 278 275 277 276 276 282 288 291 294 294 293 292 287 285 291 293 295 294 294 294 294 293 291 288 288 288 287 291 288 286 288 288 287 289 288 288 288 287 286 286 286 285 285 285 286 285 285 284 285 285 285 284 283 283 282 281 281 281 280 280 281 281 281 281 281 281 281 280 280 280 280 280 280 280 279 280 282 281 281 281
290 290 285 284 281 281 279 277 275 275 278 286 286 289 291 293 293 290 285 283 290 291 294 295 294 294 294 292 288 289 289 285 287 291 290 286 287 286 287 287 287 286 286 286 286 285 285 285 285 284 284 284 284 283 284 284 283 283 281 281 280 279 279 278 278 279 279 279 280 280 280 280 279 279 278 279 279 279 279 280 280 280 280 280 279 281
284 284 284 282 279 281 280 278 276 278 280 284 287 288 291 293 294 289 278 279 291 292 290 291 293 294 294 290 289 289 288 286 288 293 288 287 286 286 286 286 285 285 284 284 284 284 284 284 284 283 283 282 282 282 283 282 282 281 279 278 277 277 276 276 276 277 278 278 278 278 278 278 277 277 276 276 277 278 279 279 280 280 280 280 281 281
281 282 283 282 282 283 283 278 280 281 286 286 286 288 289 294 291 282 277 285 287 289 290 293 292 293 291 289 290 288 291 291 290 285 285 286 286 284 284 284 284 284 283 283 283 284 283 282 282 281 281 281 281 282 282 281 280 278 278 276 275 274 275 275 275 276 277 277 276 276 275 275 274 275 275 275 276 278 278 278 278 279 279 278 280 278
281 282 282 282 281 280 281 279 279 281 286 289 287 291 292 289 280 280 287 286 286 286 288 291 292 292 291 292 291 293 286 281 285 285 285 285 285 284 284 284 283 283 283 283 283 282 281 280 280 280 279 280 281 281 281 280 278 277 275 274 273 274 274 274 274 275 275 275 275 274 273 273 274 274 275 276 276 275 276 277 278 279 279 279 279 278
283 281 279 281 281 280 280 279 278 276 285 291 290 288 289 286 284 287 285 287 285 287 288 289 290 290 290 290 291 286 284 283 284 284 284 284 284 283 283 283 282 282 282 281 281 281 280 279 278 278 278 279 279 280 279 277 276 275 274 273 273 274 274 274 273 274 274 273 273 272 273 273 273 274 275 275 275 274 275 277 278 278 279 278 277 277
288 282 281 283 285 279 279 278 279 284 286 291 292 286 286 290 290 290 288 287 287 287 287 288 288 288 289 291 288 284 284 283 283 283 283 283 282 283 282 282 282 282 281 281 281 280 279 278 278 277 277 278 278 278 277 276 274 273 272 271 273 273 272 272 272 271 271 272 272 272 273 272 272 273 273 273 273 275 276 276 276 277 277 276 276 276
289 286 287 282 286 283 282 285 288 285 288 288 291 290 290 291 290 289 289 288 287 286 287 286 287 287 286 287 286 285 283 283 283 283 282 282 282 282 282 282 281 281 281 280 280 279 278 277 277 276 276 276 276 276 275 274 273 272 270 271 271 270 269 269 270 271 270 270 270 272 273 273 272 273 274 274 274 273 274 274 274 274 274 274 273 273
285 287 286 289 285 288 287 287 287 286 287 287 287 287 286 288 287 287 287 287 289 286 287 287 286 286 286 287 287 284 284 284 283 282 282 282 282 281 281 281 280 280 279 279 278 278 277 276 276 275 274 274 273 273 273 273 272 270 270 270 269 268 268 268 269 270 271 271 271 271 272 272 273 273 272 271 272 272 271 271 271 272 272 271 271 271
286 286 285 285 285 287 282 289 287 287 286 287 288 286 286 285 287 286 287 287 287 286 287 286 288 286 287 287 287 286 285 284 283 283 282 282 281 281 280 280 279 279 278 277 277 277 276 275 275 274 274 273 273 272 272 271 271 270 269 267 267 267 266 267 268 268 268 267 268 268 270 270 270 270 270 269 269 270 270 271 270 269 271 270 269 270
283 285 285 284 284 286 286 286 284 284 285 285 286 286 287 287 285 285 284 284 285 285 284 285 285 285 285 285 285 285 284 284 283 282 282 282 281 280 280 279 278 277 277 277 277 276 275 275 274 274 274 273 272 272 271 270 269 268 267 266 265 265 265 266 267 266 266 267 268 268 268 267 271 269 267 268 268 267 267 267 268 268 269 269 269 270
284 288 283 285 285 285 284 281 283 284 286 285 284 285 287 288 286 283 283 284 284 285 284 284 285 284 285 285 285 285 284 283 283 283 282 282 281 280 279 278 277 276 276 275 275 276 275 274 274 273 274 273 272 271 270 268 267 266 265 264 264 263 263 265 266 266 266 266 265 265 267 267 267 266 266 265 265 266 267 267 267 268 267 267 269 270
286 284 284 286 284 285 286 285 284 285 283 286 286 287 287 286 285 284 283 284 285 285 284 284 283 284 284 285 286 286 285 284 284 283 283 282 281 280 278 277 276 275 275 274 275 274 274 274 273 273 273 272 271 270 269 267 266 265 264 263 263 263 261 263 263 264 264 264 264 264 264 265 264 264 265 265 265 265 266 272 274 273 269 268 274 276
284 284 285 285 286 285 286 286 290 290 288 287 288 286 286 285 285 285 285 285 286 287 286 285 284 283 284 284 286 286 285 285 284 283 282 282 281 280 278 276 275 274 273 273 272 272 272 273 272 272 272 271 271 269 268 267 265 264 263 263 263 262 261 261 263 264 262 263 263 264 264 264 263 264 264 264 265 265 265 264 268 274 275 274 274 275
Wind_Speed
5 5 7 9 6 7 7 8 7 5 1 7 8 7 6 5 1 3 3 2 0 1 7 8 7 6 6 6 6 9 7 6 5 7 7 5 5 5 5 6 7 7 7 6 8 9 10 10 9 9 8 8 8 8 10 9 9 11 11 10 11 10 9 9 9 9 9 9 8 6 7 7 6 7 8 8 7 7 7 8 8 8 7 7 8 7
7 6 8 8 7 9 9 8 2 2 4 3 3 8 6 6 2 1 2 2 2 1 4 7 7 8 8 7 6 4 9 9 9 8 8 8 7 6 7 7 7 7 3 5 6 6 8 9 8 8 8 8 9 7 9 10 10 10 10 11 11 10 9 10 10 9 9 9 9 9 9 7 7 7 7 7 8 8 7 8 8 8 7 7 7 8
7 9 6 9 8 6 7 8 1 1 1 1 2 3 1 2 4 2 3 1 1 2 5 2 4 7 7 6 5 7 9 6 9 11 10 9 8 8 8 8 8 6 6 6 7 7 7 9 9 9 9 9 11 11 12 11 10 10 10 9 9 10 10 9 10 9 9 7 7 7 6 8 5 5 7 6 6 7 8 9 9 8 8 8 7 7
4 5 7 7 6 3 6 5 4 1 1 1 1 1 2 2 5 1 1 2 1 1 1 3 4 7 6 6 8 8 9 9 7 9 9 10 11 11 10 9 9 8 8 8 8 9 8 9 9 8 8 9 8 9 8 9 10 10 9 9 9 10 10 9 10 9 8 8 6 5 5 5 5 5 5 7 8 8 8 8 8 8 8 8 8 7
7 2 1 1 4 6 4 4 4 3 2 2 1 1 1 2 1 2 3 2 1 2 1 2 5 7 6 8 10 10 12 9 7 8 8 8 9 9 7 7 8 10 10 9 8 8 9 8 9 10 10 9 10 9 10 10 11 9 12 11 11 9 11 10 9 9 8 8 7 7 5 6 5 2 6 5 6 7 8 8 8 8 7 7 8 7
4 2 1 3 5 5 5 5 6 6 5 3 3 2 2 1 8 5 5 5 1 2 3 3 1 4 6 13 13 7 6 10 9 8 9 9 7 6 7 7 5 5 5 9 10 10 10 10 8 7 7 7 7 8 8 10 11 9 9 10 9 8 8 9 10 10 8 9 9 9 8 8 8 7 7 9 9 7 7 8 7 8 8 7 5 5
2 0 0 5 5 4 4 3 4 4 5 3 3 3 2 6 7 6 5 1 1 1 1 1 5 5 6 4 4 6 4 8 3 6 7 6 6 6 8 7 7 7 6 2 1 2 6 6 7 8 9 9 9 8 6 5 7 8 8 9 10 10 8 8 9 10 8 8 8 10 10 8 9 8 6 4 5 7 6 6 8 8 8 8 9 8
2 2 2 2 5 5 4 4 4 7 3 2 1 1 4 5 6 5 4 2 0 1 1 0 1 1 5 8 6 1 5 4 5 6 8 8 7 8 9 9 7 7 6 6 6 5 4 4 6 8 8 8 9 7 6 6 5 7 8 9 9 8 8 7 8 11 10 9 9 8 8 8 8 8 7 7 6 6 6 7 7 8 8 8 8 8
2 4 3 5 3 4 7 2 4 6 3 2 0 2 3 3 4 4 2 2 1 3 2 1 2 1 4 5 5 3 2 4 7 8 8 9 9 9 7 6 6 4 4 4 4 3 4 5 5 3 5 5 6 6 7 7 6 5 6 6 6 7 7 7 8 10 10 9 9 9 8 8 7 7 6 6 6 5 3 3 3 5 7 8 7 8
2 3 5 6 7 6 2 0 2 6 5 2 1 2 4 4 3 2 2 1 0 1 5 3 4 3 7 3 3 1 4 6 7 9 6 4 6 5 6 5 4 3 2 1 1 2 2 1 1 2 2 4 3 3 4 5 5 5 5 6 7 7 6 6 7 9 10 9 8 8 9 9 7 6 6 6 7 6 4 5 4 4 5 6 5 5
1 1 3 2 4 1 4 2 1 3 4 5 3 6 4 3 2 2 1 1 1 1 4 2 7 2 4 4 6 6 5 6 7 2 2 3 5 4 5 5 4 4 4 4 4 4 3 1 1 2 3 3 3 2 3 3 4 4 5 5 6 7 6 7 8 7 9 8 7 8 8 8 8 6 6 5 5 7 6 7 7 6 5 5 5 6
1 1 1 1 1 3 3 4 5 1 5 5 2 3 6 5 2 1 1 2 1 3 0 4 1 0 6 4 2 1 0 0 1 1 4 4 3 4 4 4 4 4 3 4 3 4 4 2 1 1 3 4 4 3 3 3 4 4 5 5 5 5 5 5 6 6 7 7 6 5 6 7 7 7 6 6 6 5 5 6 7 7 6 6 6 6
3 2 2 3 4 2 3 8 4 3 0 1 4 7 7 2 2 0 1 1 3 5 1 1 2 2 9 8 5 4 3 2 3 1 5 5 5 5 5 4 4 3 3 4 4 3 4 4 4 4 4 4 5 5 5 5 5 5 5 5 6 6 5 6 5 6 5 6 6 6 6 6 7 7 7 6 5 4 5 4 4 3 4 3 2 3
1 2 2 1 2 3 2 10 3 2 2 2 7 7 5 3 2 2 2 2 1 1 3 0 1 2 4 6 11 14 14 3 3 3 3 5 5 4 4 3 1 2 2 2 2 2 3 4 5 5 4 4 4 4 5 5 5 4 5 5 6 6 5 5 6 6 6 6 5 5 5 5 6 6 6 6 6 4 4 3 3 2 2 1 1 1
7 2 6 8 2 4 2 3 10 7 8 6 2 6 4 4 4 4 4 5 5 2 1 3 2 6 2 4 1 5 4 5 2 2 1 1 2 2 1 1 2 3 3 3 2 3 4 3 3 4 4 4 4 5 5 4 4 4 5 5 6 6 5 6 6 5 6 6 5 5 4 4 4 5 5 5 6 5 3 2 2 2 2 2 3 4
11 2 2 3 2 2 7 0 0 7 4 2 1 3 1 4 1 4 1 1 3 1 1 1 5 3 5 1 3 2 2 2 2 0 0 2 3 2 1 3 3 3 4 3 3 3 4 4 4 4 4 4 4 4 4 4 4 4 5 5 5 6 5 6 5 5 5 5 5 5 4 3 3 4 4 4 5 5 4 3 3 3 4 3 1 1
1 3 1 2 3 2 0 2 1 2 7 5 4 3 3 1 8 5 1 0 0 2 5 4 4 7 4 7 9 7 5 3 1 1 2 4 4 3 2 3 3 4 4 3 3 4 4 4 3 4 5 4 4 4 4 4 4 4 5 5 7 6 5 5 5 4 4 4 5 4 4 3 4 4 4 5 4 4 2 0 1 2 3 3 3 3
12 3 1 2 2 1 0 1 0 3 0 7 0 6 2 1 3 4 3 1 0 3 3 5 6 3 0 6 3 0 4 4 4 5 6 5 4 3 4 4 4 4 3 4 4 4 4 4 4 4 4 5 5 5 5 4 3 4 4 6 7 6 6 5 5 4 4 4 4 4 4 4 4 4 3 3 3 3 2 1 1 1 0 1 2 2
8 5 1 2 1 3 0 0 3 1 2 2 6 2 6 1 2 1 2 2 1 2 2 2 5 3 7 5 0 0 2 5 5 5 4 4 5 5 4 3 4 4 3 4 4 4 4 4 4 4 5 5 5 5 5 5 4 4 4 7 7 6 5 5 4 3 4 5 3 3 3 4 4 4 3 1 0 3 3 3 2 1 0 2 3 2
2 6 1 2 2 1 0 2 8 3 2 0 2 2 2 1 0 4 5 2 5 3 1 5 3 3 5 5 7 6 6 6 5 3 3 4 5 5 5 5 5 4 3 3 4 4 5 5 5 5 5 5 5 5 5 5 5 5 4 5 6 6 6 6 5 4 4 5 5 5 4 3 3 3 4 4 3 3 3 3 3 2 1 1 3 3
2 3 5 1 2 2 2 4 7 10 8 1 2 4 0 0 1 2 2 3 3 2 4 2 3 4 4 5 6 8 6 4 7 5 4 4 3 3 5 6 5 4 3 3 3 4 5 5 5 5 5 5 5 5 5 5 6 5 5 5 6 7 7 6 6 5 4 5 5 7 7 6 6 5 4 4 3 4 4 4 4 4 4 5 4 4
2 2 8 3 3 5 1 2 0 2 6 7 10 11 14 10 5 4 5 0 1 3 3 4 7 1 1 2 3 4 4 4 4 7 5 4 4 4 4 4 5 5 3 3 3 4 5 5 5 5 5 5 5 5 5 5 5 5 5 5 5 6 5 5 5 5 5 4 5 5 6 6 5 5 5 5 4 5 6 5 5 4 5 4 3 4
3 4 9 4 2 2 1 1 0 0 1 1 2 5 5 5 5 4 5 6 1 2 2 1 1 8 5 0 3 4 3 3 1 2 6 4 5 5 4 3 2 3 3 4 4 4 4 5 5 5 5 5 6 5 5 5 5 5 5 5 5 7 6 5 5 5 5 5 6 6 6 6 6 6 5 6 5 6 6 5 5 4 4 4 4 4
10 4 7 3 3 1 1 2 1 0 0 1 4 3 6 9 11 8 3 4 6 1 1 0 3 5 2 1 1 1 2 1 0 1 1 4 4 4 4 3 4 3 2 3 4 4 4 4 5 5 5 6 5 5 6 5 5 6 5 6 6 7 5 5 5 6 7 7 7 7 7 6 5 6 6 7 6 6 5 4 4 4 4 4 4 5
5 2 9 6 3 1 2 1 2 1 1 4 4 7 4 4 3 1 3 1 2 6 7 6 7 7 5 0 1 1 0 1 1 1 0 2 4 5 5 4 3 4 4 4 4 4 4 5 5 5 5 5 5 5 6 6 6 6 6 6 6 5 4 5 5 7 7 7 8 7 7 7 6 7 7 7 6 5 4 4 4 4 5 5 4 4
4 6 9 8 10 9 7 7 12 14 12 2 2 3 6 7 11 6 5 3 4 3 7 3 5 10 2 0 1 1 1 1 2 2 3 1 2 5 5 5 4 4 5 5 5 5 5 5 5 6 5 5 5 6 6 6 6 6 6 6 5 5 5 5 6 6 8 7 8 7 8 7 7 7 6 5 5 5 5 5 5 5 4 4 4 4
3 4 7 9 12 13 14 6 4 11 6 7 11 7 7 6 6 7 3 4 7 5 8 7 10 14 6 2 2 4 4 6 7 4 5 5 3 1 4 5 5 5 5 6 5 5 6 6 7 6 5 5 5 5 6 6 6 6 6 6 5 5 5 5 7 7 8 8 8 8 7 7 6 6 5 5 5 5 5 5 5 5 4 4 4 3
3 4 8 11 11 10 5 2 5 11 9 13 12 8 6 8 5 7 9 11 11 5 7 6 9 10 16 6 6 6 6 5 5 6 5 5 5 5 5 5 5 5 5 5 6 6 6 6 6 6 6 6 6 6 7 6 6 6 6 6 5 5 5 6 8 8 8 8 8 7 7 6 5 6 6 6 5 5 5 5 5 5 4 4 4 3
5 8 6 7 9 7 4 1 9 7 10 10 13 12 11 10 8 9 10 14 7 9 14 17 16 16 19 12 9 9 9 9 9 10 10 9 5 4 5 5 5 5 6 6 5 5 6 6 6 6 6 6 6 6 6 6 6 6 6 6 5 6 6 6 8 8 8 8 9 7 6 6 5 5 6 6 6 6 5 5 4 4 4 4 2 2
2 4 3 5 6 5 3 4 6 7 5 6 10 13 13 11 12 15 16 15 13 10 16 18 13 17 17 9 7 8 8 9 7 5 4 5 7 7 6 5 6 6 6 6 6 5 5 6 6 6 7 6 7 6 5 5 6 6 7 6 6 6 5 7 7 8 8 9 7 6 6 7 6 7 6 7 7 6 5 5 4 4 4 4 4 3
4 3 9 3 4 5 5 6 5 5 6 5 5 7 9 11 12 15 15 17 15 14 14 14 9 11 12 7 6 5 8 4 5 7 11 10 8 8 7 5 5 6 6 7 6 6 5 5 6 6 7 7 7 6 6 5 6 7 8 6 6 6 5 6 8 8 9 9 6 7 7 7 7 6 7 6 6 5 5 5 5 4 4 4 4 4
4 3 2 5 4 4 4 7 6 3 2 3 5 6 10 13 14 14 15 14 9 10 12 11 11 14 19 3 0 3 4 8 10 11 9 6 5 6 7 7 7 7 7 7 7 7 6 5 6 7 7 7 6 6 5 6 6 8 8 6 6 6 6 8 8 10 9 8 7 7 7 7 6 7 6 6 6 5 4 4 5 5 4 4 5 5
6 5 6 5 7 6 3 8 5 5 3 2 8 13 17 17 14 12 13 11 11 12 12 11 18 20 8 6 6 5 5 7 6 5 4 4 6 8 9 9 8 6 8 9 8 7 6 5 5 6 7 6 6 5 4 5 8 8 7 7 5 6 8 9 9 9 9 7 7 7 7 6 6 6 7 6 5 4 4 5 5 6 6 7 5 5
4 4 3 3 5 1 1 4 5 6 8 13 15 17 14 14 14 12 11 15 17 14 14 17 18 14 3 1 4 4 5 6 7 7 8 12 11 9 6 6 6 7 7 7 8 7 6 5 5 5 6 6 5 4 4 5 8 8 6 7 6 8 8 9 9 9 8 8 7 7 6 6 6 7 6 5 5 4 5 6 7 5 4 4 5 6
8 6 5 4 4 3 2 8 5 9 13 15 6 3 11 13 10 13 16 17 16 15 14 14 13 14 6 3 6 7 8 6 6 9 6 3 7 7 8 6 8 9 9 10 9 7 7 6 6 7 7 6 6 5 7 7 7 8 8 7 9 8 9 9 9 9 8 8 7 6 6 6 6 6 5 4 4 5 6 6 5 6 6 6 6 6
8 9 4 1 4 4 3 4 5 9 6 3 2 8 9 11 13 11 13 16 14 13 11 13 17 18 16 13 7 6 7 6 5 2 3 2 2 7 8 8 8 9 10 9 11 9 10 9 9 10 9 5 6 6 6 7 6 9 9 7 9 9 8 9 9 8 7 8 7 7 6 5 5 5 5 5 5 6 7 7 6 6 5 5 5 4
11 7 5 4 4 6 5 7 7 4 6 2 3 6 10 10 8 12 12 15 14 10 11 15 19 20 17 12 3 1 1 2 3 8 4 6 3 0 5 6 9 8 8 6 8 9 7 7 8 8 8 7 6 7 7 6 7 9 9 10 8 9 8 9 9 8 7 7 6 6 6 6 6 6 6 5 6 7 6 6 6 6 5 6 5 5
6 10 6 7 3 6 5 3 2 2 10 12 13 1 3 4 6 6 6 10 5 9 14 15 17 18 15 9 6 5 5 6 7 11 5 5 6 7 5 7 7 8 9 10 9 9 9 8 8 7 9 9 8 6 6 6 8 9 10 9 7 9 8 9 9 6 6 7 6 6 6 6 6 5 5 5 6 5 4 4 3 3 4 4 5 6
4 3 5 11 3 7 5 6 6 8 12 13 6 5 7 7 7 7 5 12 11 12 13 14 14 15 14 9 4 7 6 6 10 11 6 8 6 5 10 7 8 9 8 9 11 12 10 9 9 10 8 9 9 6 7 8 9 11 10 8 8 8 9 8 7 6 6 6 5 5 5 5 5 5 4 5 4 4 4 4 4 3 3 4 3 4
3 2 6 7 5 5 8 7 9 4 8 8 7 6 9 8 10 9 6 10 19 11 6 6 12 16 9 4 10 9 10 8 12 13 6 8 7 5 6 10 10 9 9 8 7 8 10 10 12 10 9 9 7 7 8 8 10 10 10 8 7 9 8 6 5 4 5 5 5 5 5 4 4 3 3 3 3 3 4 3 4 5 5 5 5 5
3 1 4 11 10 9 8 4 3 6 6 5 6 5 7 11 11 10 15 14 1 9 10 11 10 9 5 9 10 8 13 9 5 4 9 10 11 8 6 6 8 8 11 10 10 9 10 8 9 10 8 6 6 7 7 8 11 10 8 7 8 8 6 4 4 4 4 5 4 4 3 3 3 4 4 4 4 4 4 4 4 5 5 4 4 3
3 3 0 1 6 9 8 6 6 5 8 4 3 9 9 8 8 14 7 1 3 4 7 11 10 8 8 12 11 12 4 5 8 6 8 7 9 9 9 9 10 9 6 6 8 9 10 10 10 10 9 6 7 7 7 8 11 9 8 8 9 6 4 4 3 3 3 3 3 3 3 4 4 4 4 4 4 5 4 3 3 3 3 3 3 4
10 8 9 10 5 2 3 7 5 11 6 12 11 2 4 9 5 4 4 1 2 1 2 2 4 6 6 7 6 6 8 5 7 8 7 7 10 11 11 10 11 11 11 10 9 6 10 11 10 9 8 6 7 7 6 9 11 9 7 10 6 4 3 3 2 3 3 3 4 4 4 4 4 4 4 4 4 3 3 3 4 5 4 5 6 6
10 7 4 7 8 9 9 9 10 6 2 11 14 8 6 8 3 1 4 4 0 0 2 2 1 1 2 9 7 6 6 9 5 8 8 6 7 8 8 8 8 8 8 6 7 9 8 11 10 10 8 7 7 6 5 7 10 8 9 8 4 4 3 3 3 3 3 3 4 4 5 4 4 3 3 3 3 4 4 5 5 5 6 6 6 7
10 11 8 9 5 6 8 10 9 3 6 2 1 2 4 4 4 2 4 5 5 3 2 3 3 2 4 7 6 9 6 3 7 7 10 9 8 9 10 10 10 10 10 11 10 9 8 11 12 10 9 7 8 6 6 4 9 9 8 4 4 3 3 2 2 3 3 3 3 3 3 3 3 3 3 4 4 4 4 5 5 6 6 6 6 6
2 5 3 5 5 5 5 4 1 2 2 1 1 1 2 2 3 3 4 4 1 3 5 5 5 5 6 9 11 2 6 9 10 7 7 9 9 7 7 8 8 7 8 9 10 9 9 10 10 11 11 9 7 7 5 5 6 10 6 5 4 2 2 2 2 3 4 3 3 3 3 3 4 4 4 4 5 4 4 4 5 6 5 5 5 4
1 1 3 5 2 8 8 10 5 3 2 1 1 0 0 1 1 1 3 2 2 4 3 2 7 6 8 7 8 10 9 10 10 8 8 9 9 10 10 10 9 9 10 10 9 11 10 10 11 10 10 10 7 6 6 6 7 7 6 4 3 2 2 2 3 4 3 3 3 3 3 3 3 4 4 4 4 5 5 5 5 4 3 3 4 4
3 2 2 4 6 12 8 2 1 1 0 1 1 2 2 2 2 1 2 3 4 3 3 2 5 5 5 5 6 10 10 9 12 11 10 9 10 10 10 10 11 9 7 8 9 9 9 9 10 11 10 9 8 6 6 6 6 6 5 4 3 2 2 3 3 4 3 3 3 3 3 3 5 4 4 4 5 5 4 3 1 2 3 3 5 5
3 8 6 6 7 2 1 1 0 2 0 3 4 4 4 4 6 3 3 4 5 6 4 3 1 4 5 6 8 10 11 9 9 12 12 10 10 10 10 10 9 9 10 10 7 8 9 10 10 10 10 9 8 7 7 7 5 5 4 4 3 2 3 3 3 3 3 3 3 3 2 3 4 4 3 2 2 2 1 1 2 1 2 4 2 4
5 8 2 6 5 7 10 6 5 4 4 3 5 9 7 3 6 5 5 5 5 6 5 5 4 2 4 6 10 12 13 11 10 11 13 12 12 11 11 11 10 10 9 7 7 8 8 8 10 11 10 8 7 7 7 7 5 4 4 3 3 3 3 2 2 3 3 3 3 3 3 2 2 1 1 0 1 1 2 6 4 3 1 2 8 10
5 3 6 8 10 9 1 5 9 7 2 1 1 3 4 5 7 7 6 6 5 6 8 9 7 3 4 5 5 10 11 13 13 11 10 10 10 10 11 13 13 11 11 10 11 9 10 9 9 10 9 8 8 7 7 6 5 4 3 3 2 2 1 1 3 4 3 3 1 1 1 0 0 1 1 2 3 4 4 4 4 6 8 8 7 9
Wind_Direction
157 158 191 205 197 194 216 223 223 253 297 193 167 188 204 177 203 75 107 119 352 154 216 222 238 249 247 228 231 182 197 201 200 196 207 222 216 210 210 210 214 212 213 201 190 183 183 184 182 179 169 176 177 177 179 182 179 181 183 172 181 184 176 178 181 179 179 184 189 198 201 205 192 181 170 181 186 190 194 194 201 204 195 191 192 194
162 195 206 199 210 188 212 225 227 335 303 348 177 182 202 165 165 21 141 207 260 131 239 215 240 249 252 257 253 242 169 204 199 201 207 208 211 211 210 219 218 220 201 183 197 187 174 178 176 171 171 170 176 188 180 185 186 182 183 180 180 180 184 183 186 182 183 187 189 186 193 190 187 180 181 182 182 186 190 194 198 204 201 196 191 189
194 206 194 202 216 214 207 225 121 172 339 309 27 158 167 180 95 101 68 102 168 81 276 303 235 244 246 248 245 236 243 220 196 197 203 200 209 212 210 213 218 209 210 194 196 182 173 169 173 171 176 181 183 185 186 187 184 186 189 188 178 182 185 186 184 181 188 183 182 178 182 178 183 182 181 185 180 172 180 192 198 197 202 200 197 184
185 226 227 187 180 177 189 182 153 108 24 36 271 43 195 155 135 239 282 138 208 175 301 32 330 284 284 270 256 241 229 233 222 207 206 197 206 208 208 203 205 207 205 202 190 186 185 179 178 174 178 182 180 184 191 187 187 189 193 192 187 181 184 187 186 184 183 179 175 175 167 178 170 186 183 179 180 182 181 191 192 201 200 204 202 190
173 165 7 311 163 163 156 151 166 167 234 243 281 317 112 148 76 111 176 163 120 330 102 332 317 284 239 248 249 239 229 232 223 215 220 219 209 205 209 212 200 201 201 203 196 191 187 187 189 185 187 180 185 187 187 187 188 191 192 192 190 183 183 186 184 180 170 163 170 174 176 168 185 156 180 173 187 176 185 183 191 200 196 202 204 195
190 240 308 153 177 162 148 168 186 150 216 212 226 151 347 159 106 90 124 127 131 267 221 158 337 296 229 217 230 238 209 224 221 207 217 217 214 196 203 215 220 221 202 190 194 191 189 189 190 189 182 185 195 197 195 189 191 186 187 188 189 188 182 183 184 179 170 170 169 168 173 173 180 181 181 192 194 192 182 191 182 192 193 196 193 188
150 228 153 162 144 129 140 172 208 147 182 156 239 169 156 86 112 125 149 160 154 196 265 90 167 263 340 340 251 215 183 213 224 202 225 220 219 211 220 220 216 213 231 248 226 164 169 182 175 186 187 191 193 205 195 193 187 185 182 186 188 189 186 179 177 178 174 173 176 179 183 181 184 180 202 182 181 187 199 173 180 188 190 197 199 200
124 81 63 144 124 139 131 187 206 165 149 227 263 351 128 109 116 156 151 161 224 123 24 357 156 229 298 279 311 41 153 208 226 225 226 225 220 215 216 218 219 223 219 210 214 223 218 203 177 183 192 188 193 186 181 192 189 185 184 182 187 185 182 180 171 179 182 179 179 177 181 182 187 190 189 185 187 181 180 194 188 179 188 190 195 198
142 145 186 140 143 142 185 187 173 161 165 200 250 324 101 126 144 144 142 158 168 73 302 243 274 328 246 265 217 188 248 247 237 233 229 221 214 208 191 185 181 157 144 147 170 198 208 220 231 205 180 186 169 170 176 186 190 185 179 176 176 180 178 182 174 176 183 181 178 177 174 178 190 177 188 180 185 191 184 184 185 150 161 184 184 185
333 165 179 149 149 185 123 158 338 176 158 250 221 60 78 64 62 121 181 126 13 120 258 217 197 204 279 249 248 229 217 242 236 234 245 221 178 149 127 122 124 112 105 118 163 196 209 199 189 176 122 107 118 127 146 160 166 174 168 169 170 180 175 177 180 174 180 179 171 174 178 176 180 171 176 160 177 180 181 204 201 187 166 159 178 188
158 117 196 82 179 117 127 39 72 55 105 129 131 87 56 58 65 11 53 94 69 296 241 190 191 140 298 261 195 171 217 210 238 248 72 68 80 90 116 133 135 153 174 190 202 203 207 177 151 121 138 140 102 94 106 136 159 176 175 175 179 184 174 174 178 173 178 178 176 177 177 173 173 173 165 160 168 175 180 191 193 181 188 178 187 193
82 44 58 317 318 168 124 78 10 69 116 125 121 127 89 4 26 38 354 42 131 271 227 317 327 69 189 290 268 191 256 10 105 141 140 124 145 140 145 150 150 155 183 193 187 205 161 118 256 133 189 176 150 143 176 175 175 179 186 178 181 190 177 172 175 175 175 176 177 170 169 171 169 168 171 173 185 184 181 175 177 179 176 183 186 195
63 118 118 23 291 178 160 93 5 22 358 81 116 114 111 166 69 337 80 344 213 211 241 351 338 352 248 232 289 267 291 185 193 158 151 141 141 158 148 145 167 172 189 186 188 176 163 175 188 193 211 169 160 178 188 181 177 175 181 181 176 192 175 166 166 173 169 166 176 170 168 171 167 163 164 175 176 187 169 159 137 135 166 173 158 158
49 125 154 77 35 247 196 133 143 76 261 187 150 148 125 128 147 199 212 191 241 320 285 309 277 271 261 281 230 250 258 225 173 97 132 141 149 145 153 156 169 211 186 160 159 175 190 177 172 187 169 157 164 173 174 171 169 171 174 181 172 188 171 158 159 168 166 166 169 166 161 161 159 164 162 172 172 168 149 149 153 151 150 160 238 279
145 288 229 153 207 159 196 181 175 158 162 206 134 148 173 149 155 189 168 186 204 175 293 278 73 232 122 254 284 231 233 165 164 139 141 161 170 168 193 246 241 242 173 138 177 188 175 154 144 142 150 152 152 151 153 159 164 160 170 170 168 169 161 149 156 156 160 159 155 158 152 141 143 157 156 155 150 143 132 128 146 173 176 180 206 217
192 133 315 336 256 165 169 262 101 117 115 195 177 76 100 224 137 147 171 122 136 125 57 315 204 211 186 238 251 240 180 135 130 83 347 284 261 210 202 231 230 198 146 154 153 120 112 117 120 118 117 127 128 129 133 147 146 153 163 165 157 146 136 132 132 138 144 145 135 136 139 134 121 124 119 98 104 117 129 147 156 171 173 172 199 253
118 216 326 335 43 77 131 329 321 140 162 218 104 194 194 97 97 103 38 326 70 51 259 168 302 296 270 306 270 249 205 198 82 206 219 241 223 187 209 230 208 143 134 147 131 132 133 123 123 134 133 125 125 130 143 142 149 158 153 140 125 118 111 116 124 130 128 126 117 126 120 100 101 105 106 105 108 109 92 50 156 158 170 170 184 223
159 136 320 38 151 332 98 335 4 64 190 98 153 216 155 170 121 129 207 54 272 190 259 143 211 283 339 292 299 292 155 194 201 214 223 200 181 200 227 218 164 148 147 133 101 94 121 138 130 110 122 137 142 144 131 135 143 131 137 124 123 124 127 124 125 137 136 123 117 118 109 95 95 102 89 81 93 88 108 270 326 39 46 196 187 137
109 83 352 3 13 302 262 82 56 342 70 120 184 195 132 191 263 263 140 216 193 216 258 244 211 240 184 233 338 328 234 214 208 193 161 179 186 208 222 180 120 114 114 116 126 134 132 128 128 121 96 84 83 89 101 91 78 81 90 112 126 136 135 133 132 126 115 115 116 116 112 107 102 95 88 75 146 145 171 175 185 207 58 43 44 51
88 124 296 341 15 203 22 152 181 238 304 309 94 57 11 100 163 134 188 188 118 222 174 294 161 242 208 214 208 222 206 182 184 179 207 200 201 206 183 152 143 131 106 106 114 110 102 94 95 103 106 99 97 96 101 107 93 79 76 104 126 124 128 143 148 145 146 138 135 130 123 121 117 130 159 173 204 199 165 146 113 88 58 61 55 46
81 104 140 247 323 122 174 209 201 165 157 216 104 155 183 107 236 109 297 166 163 187 188 234 298 274 253 210 195 222 222 145 152 161 170 158 155 138 147 148 146 132 120 105 106 107 107 107 92 86 97 104 98 95 91 93 99 101 87 88 101 124 138 145 153 149 146 138 136 144 154 161 163 153 132 120 111 93 79 72 72 67 72 54 42 56
85 72 132 139 131 217 240 17 89 186 200 186 169 180 180 151 125 151 259 84 141 152 224 198 242 282 270 298 165 157 165 150 150 157 169 160 145 134 133 134 140 135 130 127 111 106 105 109 109 105 105 108 102 97 98 104 98 87 89 95 100 102 104 106 97 102 103 98 104 102 101 92 86 90 85 83 71 71 67 65 66 66 56 59 38 79
141 90 106 146 212 159 355 310 358 31 105 225 193 217 177 181 147 141 179 226 89 251 89 141 337 269 248 323 43 128 144 150 186 150 163 168 152 145 146 137 109 122 136 123 109 100 98 96 102 116 112 105 106 108 99 88 92 97 96 87 84 87 83 88 93 97 99 98 93 89 87 84 81 84 86 87 82 76 67 64 62 63 73 62 49 51
77 105 87 60 37 351 271 216 199 31 3 290 280 259 168 192 194 189 166 166 157 169 204 256 225 253 272 222 84 56 68 42 54 321 203 147 121 120 126 121 128 109 98 95 92 84 93 118 122 106 99 93 87 90 90 90 82 76 70 74 78 77 76 77 85 89 89 90 87 84 84 84 83 82 80 77 75 76 72 73 77 68 70 67 61 52
140 210 112 123 85 32 340 10 324 265 204 225 212 206 208 193 150 100 105 62 130 207 170 146 239 263 269 82 109 87 159 145 275 241 227 157 125 124 124 121 120 136 136 124 114 116 95 77 77 80 84 84 82 77 76 78 78 74 71 71 79 79 74 77 81 92 91 91 88 82 83 79 77 79 79 81 79 84 87 83 82 72 62 52 54 47
143 165 137 155 161 171 185 196 206 210 208 188 340 144 190 165 167 141 201 188 179 254 155 165 251 250 222 34 157 273 162 223 263 207 205 215 146 131 130 144 161 150 141 132 118 94 94 98 88 78 77 77 77 83 83 81 79 78 74 67 74 85 82 79 84 89 90 88 88 83 80 80 80 80 85 92 92 91 81 68 60 66 60 60 55 39
155 168 178 182 190 200 206 196 49 83 74 179 216 188 192 201 183 182 109 125 195 208 191 216 220 256 252 236 181 217 198 194 208 205 201 217 237 143 124 142 153 149 141 130 122 119 100 85 85 88 80 82 81 79 80 82 81 78 79 70 62 72 87 88 86 84 87 86 87 86 78 77 79 84 87 81 75 69 66 64 60 63 58 44 66 56
120 190 205 198 213 216 194 136 168 138 168 203 201 205 199 188 192 169 174 209 199 167 248 235 234 246 253 217 198 210 218 231 224 202 201 218 218 179 161 143 139 106 105 115 121 120 116 109 103 97 98 91 88 83 79 76 78 81 81 79 65 63 72 77 86 87 88 89 86 82 79 77 74 73 69 67 66 65 64 60 56 55 49 57 67 72
146 193 214 188 231 232 229 130 158 161 175 187 199 198 195 191 184 187 216 225 184 186 218 225 213 227 244 227 195 196 189 202 204 204 201 191 173 148 138 145 149 140 141 134 133 127 127 126 120 113 106 104 96 90 87 87 84 82 76 73 71 74 78 87 92 90 87 83 80 76 77 73 69 67 67 64 62 59 55 54 55 54 57 67 66 76
111 222 199 176 224 238 227 154 169 160 184 179 192 198 197 190 197 204 218 223 210 213 227 236 224 227 240 238 198 208 191 194 206 183 142 155 177 169 162 162 161 152 151 143 139 132 124 126 123 116 109 101 101 99 95 92 94 93 91 83 74 76 71 86 86 91 87 82 81 79 73 73 66 63 63 59 56 53 50 48 47 54 54 50 45 40
126 242 157 145 200 244 220 195 192 169 150 200 205 194 187 192 203 211 219 227 225 237 243 251 263 269 261 228 213 202 194 156 113 153 180 191 177 170 165 164 168 160 159 142 128 127 125 123 119 111 105 105 103 108 108 111 109 98 88 85 85 85 86 93 92 85 83 79 74 72 70 70 66 62 59 54 54 49 48 43 46 46 45 42 34 25
135 265 130 135 175 256 206 200 214 177 160 172 209 188 188 188 203 211 217 221 207 222 242 260 268 255 252 199 296 232 163 157 177 186 185 183 169 160 171 183 181 176 159 145 134 132 135 137 134 128 122 115 109 110 120 120 112 100 96 96 91 91 89 85 83 83 76 73 70 65 65 67 68 65 59 52 46 43 41 47 48 43 37 33 27 15
174 157 154 150 181 227 244 187 158 102 84 270 228 207 201 203 202 210 222 221 209 204 222 224 235 239 242 107 211 237 174 206 199 181 145 150 180 180 185 190 187 167 151 143 145 146 144 143 145 133 119 111 111 114 126 126 111 102 108 100 96 92 83 80 79 79 75 68 67 63 62 64 67 65 57 46 40 35 40 46 45 36 29 24 11 15
144 147 159 146 174 201 348 113 108 102 202 226 220 210 197 204 202 200 212 218 218 198 215 219 236 251 271 193 216 241 196 204 188 207 188 177 179 194 193 174 169 152 140 136 139 141 136 130 129 114 110 113 114 115 112 104 103 103 98 95 89 85 82 85 77 76 74 68 61 58 57 58 60 58 52 43 37 36 42 41 37 26 26 23 15 21
169 166 186 153 171 178 142 105 109 206 231 233 235 148 208 219 208 210 222 221 223 219 229 246 257 266 252 219 199 210 204 205 193 186 183 178 170 174 168 156 150 146 146 140 138 144 145 144 131 120 115 118 124 120 111 94 92 96 84 84 85 78 83 78 81 73 69 66 59 55 52 53 57 58 49 42 40 41 43 38 28 24 20 18 10 8
168 168 164 165 134 52 91 156 179 231 244 323 193 203 201 203 212 212 236 238 230 221 215 238 247 251 247 237 214 195 192 206 201 217 138 73 94 144 147 164 162 151 155 165 151 148 149 157 151 138 132 129 114 106 97 101 100 94 90 81 83 83 77 80 77 71 65 63 54 53 46 50 54 51 46 39 36 40 35 28 21 15 9 10 359 359
165 155 146 192 170 170 179 201 218 349 352 283 218 214 178 193 186 191 225 242 230 217 200 221 235 242 245 249 223 87 119 107 211 253 165 149 147 51 156 165 156 154 137 124 130 134 139 140 130 125 116 106 102 99 98 99 96 95 91 83 77 80 76 74 71 64 61 61 51 50 45 40 45 42 36 32 37 35 26 19 10 6 5 5 354 353
165 164 184 161 221 155 152 184 183 247 250 243 221 215 146 172 175 179 189 268 247 209 212 217 232 240 243 235 199 166 119 160 227 246 197 157 156 131 86 88 88 103 114 118 115 117 117 112 101 96 106 105 92 89 97 97 98 96 89 83 78 79 74 70 66 59 59 55 46 42 42 37 37 41 29 32 34 25 15 4 0 358 359 4 344 341
24 129 168 174 186 154 195 199 202 209 234 240 226 196 192 175 146 121 149 244 250 215 211 212 227 240 238 220 161 132 116 185 232 238 207 179 159 143 118 107 110 116 120 126 130 122 118 113 111 111 100 97 94 86 95 98 97 95 89 84 81 77 75 66 61 53 53 51 47 41 39 39 35 37 31 31 21 13 8 0 353 333 350 347 340 327
126 119 117 177 207 195 186 203 227 210 249 245 205 193 177 153 112 102 194 249 243 224 186 204 221 233 241 155 150 168 164 212 234 240 166 159 132 121 126 130 120 114 106 106 98 111 115 117 109 100 98 95 96 95 95 98 95 92 92 86 85 78 71 63 54 49 52 53 50 45 39 37 36 29 35 28 10 10 3 347 359 357 360 347 345 333
139 205 189 197 196 207 191 237 257 273 258 232 182 175 149 134 127 163 211 230 330 114 180 208 222 228 170 161 170 186 210 217 224 108 116 118 110 99 96 104 117 122 125 124 124 119 108 100 101 104 100 93 93 99 99 103 99 94 93 95 84 73 65 56 47 39 55 58 56 49 41 32 36 24 13 12 13 7 356 356 357 347 351 338 326 322
182 167 356 144 212 203 212 214 238 278 238 183 18 143 136 104 195 213 226 204 144 171 191 197 212 210 170 177 189 207 166 114 124 110 113 126 126 129 123 122 112 100 93 101 108 112 108 103 100 93 79 66 76 92 102 107 102 101 102 92 80 75 62 58 47 43 63 68 60 55 40 34 18 18 18 8 14 13 356 339 351 338 327 321 336 348
177 155 189 192 192 211 177 213 208 241 256 115 125 131 210 173 225 196 168 349 80 188 180 215 201 228 163 199 192 123 129 117 126 136 124 122 129 135 136 131 130 130 130 122 110 105 114 111 102 92 88 73 72 82 95 106 104 103 98 88 83 79 70 56 51 50 65 59 51 41 36 24 20 10 15 18 356 353 354 360 6 353 1 5 3 7
160 170 179 212 182 187 194 203 216 209 136 160 149 194 200 206 173 148 126 161 255 125 156 117 71 94 147 161 150 121 123 125 106 121 121 114 118 118 114 116 117 117 108 99 106 115 111 106 103 99 84 75 72 75 82 105 109 106 97 85 76 72 59 50 32 58 61 55 42 37 31 21 6 11 21 359 353 4 22 12 9 6 11 12 10 10
184 202 167 190 166 186 197 216 228 208 175 292 56 86 131 140 121 155 130 153 165 236 198 137 172 105 110 121 116 134 127 148 144 147 138 147 136 136 137 140 139 135 131 128 126 120 117 121 120 110 96 82 76 72 76 81 108 107 94 92 77 63 58 30 39 73 67 60 51 49 39 15 24 30 11 5 13 20 21 14 15 17 4 19 13 10
236 197 140 144 228 219 265 207 190 55 59 25 67 81 125 118 61 100 123 127 205 182 174 165 172 139 130 137 125 131 148 150 139 141 132 139 140 129 124 121 115 113 112 114 116 119 119 114 111 112 108 92 79 78 75 76 89 98 100 89 69 60 46 44 74 82 78 61 56 48 42 39 44 27 18 21 15 16 14 21 12 15 355 18 6 358
251 123 143 173 184 165 240 232 200 193 152 120 132 198 65 72 159 95 103 97 159 146 133 131 157 160 157 158 151 152 150 153 143 143 144 140 146 146 143 138 136 138 138 129 129 126 124 124 120 118 117 112 103 93 89 84 77 80 85 77 64 43 34 49 84 84 74 54 46 40 45 39 45 32 22 21 18 14 12 16 13 9 354 7 359 1
275 173 194 185 163 192 235 162 37 81 64 121 108 126 246 209 169 82 95 104 89 86 100 121 121 128 132 137 146 138 148 151 147 151 154 157 153 153 149 145 141 129 118 121 127 127 123 126 128 128 125 119 119 109 101 94 90 85 81 72 58 30 50 80 82 82 66 52 52 34 42 36 43 38 26 13 22 19 358 347 357 12 353 359 2 5
169 129 211 179 196 237 49 352 262 53 353 247 233 247 229 183 155 118 105 102 100 95 88 58 75 157 148 148 137 137 142 168 162 159 155 156 154 156 157 146 140 133 132 132 132 135 139 138 132 131 127 123 126 120 112 106 100 88 78 68 55 40 73 82 79 84 76 70 72 43 32 31 44 27 24 5 0 344 322 292 304 315 331 313 41 16
111 197 183 143 218 220 220 214 144 195 245 270 241 225 224 171 127 131 123 128 136 132 132 119 82 100 139 156 154 157 159 163 166 161 163 164 163 153 146 143 138 137 134 131 127 129 128 133 136 135 131 125 125 126 123 117 109 98 81 66 58 58 79 88 118 119 95 82 80 52 33 33 25 8 32 26 84 31 6 358 10 340 95 28 11 9
158 183 154 187 199 229 199 175 178 197 199 181 241 276 181 150 140 151 167 170 179 179 163 144 138 115 154 174 174 160 162 163 165 157 152 159 160 155 151 150 150 150 149 147 137 140 141 140 138 131 128 128 134 133 129 121 116 103 90 76 74 79 68 69 127 115 95 82 64 72 96 153 88 337 50 22 36 26 32 14 1 38 53 42 9 5